Location: Newark
(35.6799°N, 139.7636°E)
Time: 09:54:57
(UTC+00:00)

Transit 2A - Pass Details

Date: 13 December 2019
Orbit: 601 x 957 km, 66.7° (Epoch: 20 January)

Event Time Altitude Azimuth Distance (km) Brightness Sun altitude
Rises 07:13:28 0° 316° (NW) 2,914 9.2 1.8°
Reaches altitude 10° 07:16:06 10° 300° (WNW) 2,042 8.7 1.3°
Maximum altitude 07:19:34 22° 251° (WSW) 1,476 9.0 0.7°
Drops below altitude 10° 07:23:15 10° 202° (SSW) 2,172 9.3 0.0°
Sets 07:26:10 0° 187° (S) 3,157 9.7 -0.5°
